Tracking 19280 objects as of 15-Nov-2018
HD Live streaming from Space Station
objects crossing your sky now

IRIDIUM 82

Track IRIDIUM 82 now!
10-day predictions
IRIDIUM 82 is classified as:


NORAD ID: 25467
Int'l Code: 1998-051A
Perigee: 478.9 km
Apogee: 730.6 km
Inclination: 86.4 °
Period: 96.6 minutes
Semi major axis: 6975 km
RCS: 4.1187 m2 (large)
Launch date: September 8, 1998
Source: United States (US)
Launch site: AIR FORCE WESTERN TEST RANGE (AFWTR)
aabbcc
Your satellite tracking list
Your tracking list is empty




NASA's NSSDC Master Catalog

Two Line Element Set (TLE):
1 25467U 98051A   18319.55082170  .00000657  00000-0  47007-4 0  9997
2 25467  86.3988 144.8938 0180413 350.6828   9.1063 14.90112457 63714
Source of the keplerian elements: AFSPC